Location: Arrabal de la Barceloneta
(41.3167°N, 1.9167°E)
Time: 17:45:07
(UTC+00:00)

Daily predictions for brighter satellites

Satellite Brightness Start Highest point End
(mag) Time Altitude Azimuth Time Altitude Azimuth Time Altitude Azimuth
Cosmos 292 Rocket 3.8 17:14:01 10° SSW 17:18:46 77° ESE 17:23:36 10° NNE
Meteor 2-21 4.4 17:14:02 10° N 17:20:13 80° E 17:26:18 10° S
Cosmos 968 Rocket 4.5 17:20:12 10° N 17:24:30 25° ENE 17:28:44 10° ESE
Cosmos 1300 2.6 17:21:08 10° S 17:24:53 66° E 17:28:41 10° NNE
Atlas Centaur 2 4.2 17:18:24 10° SW 17:25:23 32° SSE 17:32:40 10° ESE
FALCON 9 DEB 4.0 17:22:40 10° WSW 17:25:45 40° NNW 17:28:49 10° NE
Milstar 3 4.2 17:20:26 10° SW 17:26:44 28° S 17:32:18 10° ESE
Lacrosse 5 4.1 17:24:49 10° NW 17:27:23 14° N 17:29:58 10° NNE
Cosmos 1606 Rocket 3.6 17:23:16 10° S 17:27:37 90° SSE 17:32:03 10° N
Cosmos 1697 Rocket 3.7 17:23:34 10° SSE 17:27:58 24° ESE 17:32:23 10° NE
CZ-4 R/B 2.8 17:25:53 10° ESE 17:28:21 16° ENE 17:30:48 10° NNE
FALCON 9 DEB 4.2 17:25:53 10° W 17:28:52 35° NNW 17:31:51 10° NE
SMAP 3.3 17:24:36 10° S 17:29:15 78° WSW 17:33:55 10° NNW
Cosmos 2058 4.3 17:30:58 10° NNE 17:33:46 18° ENE 17:36:34 10° ESE
SAR-Lupe-4 3.7 17:32:38 10° NNE 17:36:09 52° E 17:39:39 10° S
CZ-2D R/B 4.2 17:33:05 10° SE 17:36:17 26° ENE 17:39:29 10° NNE
Cosmos 1302 Rocket 4.0 17:32:57 10° SSW 17:38:11 76° ESE 17:43:29 10° NNE
NOAA 11 4.1 17:34:03 10° SSE 17:39:27 72° ENE 17:44:53 10° N
SKYMED 2 3.9 17:35:35 10° NNE 17:39:47 45° E 17:43:56 10° S
ERS-2 2.5 17:36:29 10° N 17:40:06 68° WNW 17:43:43 10° SSW
SL-4 R/B 3.7 17:37:59 10° NW 17:40:21 16° N 17:42:46 10° NE
Okean-O 3.5 17:37:08 10° SE 17:40:53 28° ENE 17:44:39 10° N
USA 281 3.5 17:35:25 10° SSE 17:41:57 76° WSW 17:48:33 10° NNW
FALCON 9 DEB 4.5 17:39:21 10° W 17:42:17 30° NNW 17:45:12 10° NE
ADEOS Rocket 4.4 17:36:08 10° N 17:42:19 48° WNW 17:49:09 10° SW
Cosmos 1346 Rocket 3.9 17:40:21 10° NNE 17:43:32 22° ENE 17:46:42 10° SE
Cosmos 1340 2.8 17:43:29 10° N 17:47:11 49° ENE 17:50:50 10° SSE
Meteor 2-16 Rocket 4.4 17:42:44 10° N 17:48:52 86° E 17:54:58 10° S
Cosmos 1315 Rocket 3.8 17:45:54 10° SE 17:49:06 24° E 17:52:20 10° NE
Cosmos 1486 Rocket 4.4 17:44:41 10° N 17:49:47 43° ENE 17:54:48 10° SE
Cosmos 1980 Rocket 3.4 17:47:18 10° SE 17:51:12 20° E 17:53:25 16° ENE
Cosmos 1745 Rocket 4.4 17:46:02 10° N 17:51:53 39° ENE 17:57:44 10° SE
YAOGAN 3 4.5 17:47:49 10° SSE 17:52:08 70° ENE 17:56:29 10° N
USA 305 4.2 17:50:01 10° NW 17:53:39 26° NNE 17:55:44 18° ENE
SAR-Lupe-1 4.0 17:50:27 10° NNE 17:54:03 84° ESE 17:57:38 10° SSW
Cosmos 1689 Rocket 1.9 17:51:50 10° NNE 17:54:42 60° ESE 17:57:32 10° S
Cosmos 2297 Rocket 2.2 17:49:06 10° NNW 17:54:45 66° ENE 18:00:22 10° SSE
In-Cosmos 22 Rocket 4.1 17:51:43 10° N 17:57:03 63° ENE 18:02:30 10° SSE
CZ-4B R/B 2.8 17:54:27 10° N 17:57:27 38° WNW 18:00:22 10° SW
Aureole 3 2.8 17:55:33 10° S 17:58:44 77° W 18:01:43 10° N
USA 306 4.1 17:56:27 10° NW 18:00:09 27° NNE 18:01:57 20° ENE
Cosmos 1953 Rocket 4.2 17:56:28 10° NNW 18:00:49 60° W 18:05:12 10° S
OAO 2 Rocket 4.2 17:58:09 10° WSW 18:02:45 37° S 18:05:52 18° ESE
Cosmos 2058 Rocket 3.3 17:58:50 10° SSW 18:03:18 77° W 18:07:50 10° N
CZ-2C R/B 3.5 18:01:30 10° SE 18:07:00 46° ENE 18:12:21 10° N
Cosmos 1455 2.4 18:09:13 10° SSE 18:12:48 44° E 18:16:27 10° NNE
CZ-4C R/B 4.5 18:10:37 10° N 18:14:31 15° NNE 18:17:00 13° NE
Cosmos 1992 Rocket 3.9 18:10:50 10° S 18:15:58 65° ESE 18:21:08 10° NNE
Meteor 2-10 Rocket 3.4 18:13:04 10° S 18:18:22 70° E 18:23:30 10° NNE
Cosmos 1709 Rocket 4.5 18:15:38 10° N 18:21:31 37° ENE 18:27:22 10° SE
Cosmos 2278 4.1 18:17:14 10° S 18:22:25 38° ESE 18:24:51 26° ENE
Cosmos 1076 Rocket 3.7 18:19:01 10° N 18:23:06 44° ENE 18:25:01 27° SE
Cosmos 2219 3.6 18:20:59 10° NNW 18:26:42 66° WSW 18:32:22 10° S
COSMO-SKYMED 1 3.4 18:23:36 10° N 18:27:50 51° WNW 18:32:01 10° SSW
Geosat 3.9 18:29:49 20° NE 18:33:13 62° ESE 18:38:11 10° SSW
H-2A R/B 2.2 18:28:18 10° SSE 18:33:32 54° ENE 18:38:50 10° N
Cosmos 883 Rocket 4.5 18:27:38 10° SSE 18:33:35 53° E 18:39:30 10° NNE
SL-08 ROCKET BODY 4.4 18:27:53 10° N 18:34:02 87° W 18:40:14 10° S
Cosmos 2082 3.7 18:29:02 10° NNW 18:34:44 63° ENE 18:38:04 25° SE
SJ-11-01 4.3 18:34:08 31° SE 18:36:08 54° ENE 18:40:43 10° N
Cosmos 1939 Rocket 4.3 18:33:10 10° SSW 18:36:53 38° W 18:40:35 10° NNW
ARGOS 3.5 18:36:01 38° E 18:37:08 43° ENE 18:42:14 10° N
YAOGAN 1 2.5 18:34:30 10° SSE 18:38:50 90° NE 18:43:11 10° NNW
S3M 3.9 18:33:11 10° S 18:39:17 85° W 18:45:29 10° N
Cosmos 2315 Rocket 4.1 18:35:05 10° SSE 18:41:01 49° E 18:46:57 10° NNE
GEOS 3 Rocket 4.0 18:41:32 41° ENE 18:42:20 44° NE 18:47:25 10° NNW
CRYOSAT 2 4.2 18:37:29 10° N 18:42:22 78° E 18:47:13 10° S
SeaSat 1 3.4 18:43:27 31° NE 18:43:27 31° NE 18:47:03 10° N
USA 307 3.3 18:39:36 10° NW 18:43:36 46° NNE 18:43:36 46° NNE
Cosmos 1812 Rocket 3.4 18:41:25 10° S 18:45:49 86° E 18:50:13 10° N
Cosmos 1408 2.8 18:42:23 10° NNW 18:46:01 68° W 18:49:02 14° S
Cosmos 2369 3.7 18:40:39 10° SSW 18:46:23 88° WNW 18:51:18 14° NNE
NOSS 3-4 (A) 4.4 18:41:03 10° NNW 18:47:25 37° NE 18:48:36 35° ENE
NOSS 3-4 (C) 4.4 18:41:10 10° NNW 18:47:32 36° NE 18:48:40 34° ENE
USA 308 3.3 18:44:30 10° NW 18:48:20 49° NNE 18:48:20 49° NNE
Helios 1A Rocket 4.1 18:45:27 10° S 18:49:23 44° W 18:53:20 10° NNW
Cosmos 1892 4.3 18:48:56 10° NNW 18:52:31 36° W 18:56:04 10° SSW
NOSS 3-3 (A) 4.2 18:48:37 10° SW 18:54:21 66° NW 18:59:03 19° NNE
NOSS 3-3 (C) 4.2 18:48:43 10° SW 18:54:27 66° NW 18:59:07 19° NNE
USA 215 4.3 18:54:35 26° NE 18:56:03 28° NNE 19:01:27 10° NW
CSL-04 Rocket 3.6 18:51:14 10° SSE 18:56:47 85° ENE 19:02:20 10° NNW
Cosmos 2227 Rocket 3.2 18:53:37 10° NW 18:58:59 46° WSW 19:04:20 10° S
MOS 1 Rocket 3.4 18:54:55 10° N 18:59:41 79° WNW 19:04:42 10° SSW
Cosmos 2263 Rocket 3.5 18:58:04 10° N 19:01:09 25° NNE 19:01:09 25° NNE
CZ-4 R/B 2.8 18:59:29 10° SSW 19:03:06 35° W 19:06:41 10° NNW
ATLAS 2AS CENTAUR R/B 3.4 19:02:35 10° NNW 19:09:28 39° NE 19:09:28 39° NE
BREEZE-M R/B 4.3 19:04:53 10° NW 19:09:34 55° NNE 19:10:34 51° ENE
Cosmos 1825 3.8 19:07:08 10° NNW 19:09:13 29° NNW 19:09:13 29° NNW
Cosmos 1697 Rocket 3.6 19:06:11 10° SW 19:11:35 47° WNW 19:16:32 12° NNE
Lacrosse 5 3.9 19:08:56 10° NNW 19:11:26 17° N 19:11:26 17° N
Atlas Centaur 2 3.8 19:06:45 10° WSW 19:14:26 39° S 19:16:24 35° SSE
Cosmos 44 Rocket 3.7 19:12:12 10° SW 19:16:53 59° NW 19:17:10 57° NW
SL-4 R/B 4.2 19:17:16 10° NW 19:18:22 18° NNW 19:18:22 18° NNW
Timation 1 Rocket 4.3 19:18:36 10° NNW 19:24:38 83° WSW 19:24:54 80° SSW
Cosmos 1980 Rocket 2.6 19:29:08 10° SW 19:34:41 58° WNW 19:35:17 55° NW
BREEZE-M TANK 4.3 19:36:57 10° WNW 19:39:30 30° WNW 19:39:30 30° WNW
CZ-4C R/B 4.0 19:58:03 10° NNW 20:02:10 33° N 20:02:10 33° N
Milstar 3 4.4 20:03:55 10° WSW 20:07:37 23° SSW 20:07:37 23° SSW
H-2A R/B 4.4 20:09:20 10° SW 20:13:14 20° W 20:17:12 10° NW
ATLAS 2AS CENTAUR R/B 4.5 20:53:41 10° NW 20:56:54 27° NW 20:56:54 27° NW
